Location: Unspecified
(0.0000°N, 0.0000°E)
Time: 05:46:51
(UTC+00:00)

deb West Ford - Visible Passes

Search period start: 16 July 2025 00:00
Search period end: 26 July 2025 00:00
Orbit: 3382 x 3872 km, 87.3° (Epoch: 14 July)

Date Brightness Start Highest point End Pass type
(mag) Time Alt. Az. Time Alt. Az. Time Alt. Az.
16 Jul ? 00:52:56 10° N 01:04:36 49° N 01:04:36 49° N visible
16 Jul ? 23:05:35 10° NE 23:12:49 23° NE 23:12:49 23° NE visible
17 Jul ? 01:48:30 10° NNW 01:58:51 36° NW 01:58:51 36° NW visible
17 Jul ? 23:56:44 10° NNE 00:07:06 40° NNE 00:07:06 40° NNE visible
18 Jul ? 02:47:18 10° NW 02:53:08 18° WNW 02:53:08 18° WNW visible
19 Jul ? 00:50:32 10° N 01:01:23 45° N 01:01:23 45° N visible
19 Jul ? 23:02:17 10° NNE 23:09:39 25° NE 23:09:39 25° NE visible
20 Jul ? 01:46:32 10° NNW 01:55:42 31° NW 01:55:42 31° NW visible
20 Jul ? 23:54:01 10° NNE 00:03:58 40° NNE 00:03:58 40° NNE visible
21 Jul ? 02:46:22 10° NW 02:50:00 14° WNW 02:50:00 14° WNW visible
21 Jul ? 22:11:18 10° ENE 22:12:16 11° ENE 22:12:16 11° ENE visible
22 Jul ? 00:48:12 10° N 00:58:18 41° NNW 00:58:18 41° NNW visible
22 Jul ? 22:59:08 10° NNE 23:06:37 27° NE 23:06:37 27° NE visible
23 Jul ? 01:44:40 10° NNW 01:52:39 27° NW 01:52:39 27° NW visible
23 Jul ? 23:51:23 10° N 00:00:58 40° NNE 00:00:58 40° NNE visible
24 Jul ? 02:46:00 10° NW 02:47:00 11° WNW 02:47:00 11° WNW visible
24 Jul ? 22:07:02 10° NE 22:09:18 13° NE 22:09:18 13° NE visible
25 Jul ? 00:45:57 10° N 00:55:20 38° NNW 00:55:20 38° NNW visible
25 Jul ? 22:56:05 10° NNE 23:03:40 28° NE 23:03:40 28° NE visible
